sat.trackr.live / text

‹ back to catalog

STARLINK-33683

NORAD 63573 · 2025-076E

PAYLOAD ACTIVE UNKNOWN

§ Identity

Operator
Country
US
Launch date
2025-04-14
Launch site
AFETR
Launch vehicle
Mass (kg)
RCS (m²)

Purposes: comms

External: N2YO · Heavens-Above · Gunter

§ Orbital elements

Epoch: 2026-05-24T18:42:19.237248Z

Period
94.27 min
Inclination
42.9990°
Eccentricity
0.0001463
Mean motion
15.27596613 rev/d
Perigee alt
482.0 km
Apogee alt
484.0 km
Semi-major
6,861.1 km
B*
7.9322e-4
RAAN
252.3016°
Arg perigee
312.7317°
Mean anomaly
47.3411°
Rev number
6,346

§ Raw data

STARLINK-336831 63573U 25076E   26144.77938932  .00021641  00000+0  79322-3 0  99982 63573  42.9990 252.3016 0001463 312.7317  47.3411 15.27596613 63460

JSON: /api/v1/satellites/63573 · /tle

For live sub-satellite position, see the globe view (requires WebGL).

§ Visibility from observer

Set your observer location to see the next 7 days of passes ≥ 10°. The values pass through the URL so the page stays shareable.

No JS? Fill the form by hand. The geolocation button needs JavaScript.